This is the latest recevied weather packets stored in our database for station/object HA3YA-WX. If no packets are shown the sender has not sent any weather packets the latest 10 day(s).
| Time | Temp. | Humidity | Pressure | Rain* | Wind** | Luminosity | Snow |
|---|---|---|---|---|---|---|---|
| 1777231892 | 13.33° C | 35% | 1009 hPa | - | - | - | - |
| 1777231292 | 13.89° C | 35% | 1009 hPa | - | - | - | - |
| 1777230692 | 13.89° C | 35% | 1009.4 hPa | - | - | - | - |
| 1777230092 | 13.89° C | 35% | 1009.4 hPa | - | - | - | - |
| 1777229492 | 13.89° C | 34% | 1009.4 hPa | - | - | - | - |
| 1777228892 | 14.44° C | 34% | 1009 hPa | - | - | - | - |
| 1777228292 | 14.44° C | 34% | 1009 hPa | - | - | - | - |
| 1777227693 | 14.44° C | 33% | 1009 hPa | - | - | - | - |
| 1777227092 | 15° C | 33% | 1008 hPa | - | - | - | - |
| 1777226492 | 15° C | 33% | 1008.5 hPa | - | - | - | - |
| 1777225892 | 15° C | 34% | 1008.5 hPa | - | - | - | - |
| 1777225292 | 15.56° C | 33% | 1008 hPa | - | - | - | - |
| 1777224692 | 15.56° C | 33% | 1008 hPa | - | - | - | - |
| 1777224092 | 15.56° C | 33% | 1008 hPa | - | - | - | - |
| 1777223493 | 16.11° C | 32% | 1007.8 hPa | - | - | - | - |
| 1777222893 | 16.11° C | 32% | 1007.8 hPa | - | - | - | - |
| 1777222189 | 16.67° C | 32% | 1007 hPa | - | - | - | - |
| 1777221589 | 16.67° C | 32% | 1007 hPa | - | - | - | - |
| 1777220988 | 17.22° C | 32% | 1007.6 hPa | - | - | - | - |
| 1777220389 | 17.78° C | 32% | 1007.6 hPa | - | - | - | - |
| 1777219789 | 18.89° C | 31% | 1007.6 hPa | - | - | - | - |
| 1777219189 | 18.89° C | 31% | 1007 hPa | - | - | - | - |
| 1777218589 | 18.89° C | 31% | 1007.4 hPa | - | - | - | - |
| 1777217989 | 19.44° C | 31% | 1007.4 hPa | - | - | - | - |
| 1777217389 | 20.56° C | 31% | 1007.4 hPa | - | - | - | - |
* Rain since midnight (hover to see other rain measurements)
** Current wind speed in m/s (hover to see current wind gust speed)